K3PPP Weather Reports


time (UTC)temp
C
wind
direction
speed
KPH
gust
KPH
rain 1hr
cm
rain 24hr
cm
rain mn
cm
humidity
%
barometer
mb
20260505102212 14 266 3.2 4.8 0.00 0.10 0.10 66 1011.4
20260505101711 14 213 8.0 8.0 0.00 0.10 0.10 66 1011.5
20260505101206 14 233 9.7 16.1 0.00 0.10 0.10 65 1011.1
20260505100703 14 231 4.8 8.0 0.00 0.10 0.10 66 1011.5
20260505100200 14 224 4.8 8.0 0.00 0.10 0.10 65 1011.1
20260505095655 14 210 11.3 12.9 0.00 0.10 0.10 66 1011.1
20260505095154 15 261 9.7 11.3 0.00 0.10 0.10 65 1010.9
20260505094649 15 281 3.2 4.8 0.00 0.10 0.10 65 1010.9
20260505094146 14 219 6.4 12.9 0.00 0.10 0.10 66 1011.1
20260505093642 15 323 3.2 3.2 0.00 0.10 0.10 65 1010.8
20260505093140 15 1 4.8 8.0 0.00 0.10 0.10 65 1010.9
20260505092636 14 323 3.2 4.8 0.00 0.10 0.10 66 1010.8
20260505092135 14 215 3.2 4.8 0.00 0.10 0.10 65 1010.7
20260505091632 15 208 6.4 9.7 0.00 0.10 0.10 65 1010.7
20260505091130 15 279 6.4 11.3 0.00 0.10 0.10 64 1010.8
20260505090627 15 226 4.8 9.7 0.00 0.10 0.10 65 1010.8
20260505090125 15 251 4.8 8.0 0.00 0.10 0.10 64 1010.9
20260505085622 15 200 12.9 16.1 0.00 0.10 0.10 64 1010.8
20260505085121 15 284 4.8 8.0 0.00 0.10 0.10 64 1010.8
20260505084618 15 12 4.8 8.0 0.00 0.10 0.10 66 1010.7
20260505084116 14 241 9.7 14.5 0.00 0.10 0.10 65 1010.7
20260505083613 14 286 6.4 9.7 0.00 0.10 0.10 67 1010.6
20260505083110 14 248 3.2 4.8 0.00 0.10 0.10 67 1010.7
20260505082605 14 279 4.8 4.8 0.00 0.10 0.10 67 1010.6
20260505082103 14 195 3.2 3.2 0.00 0.10 0.10 68 1010.6
20260505081559 14 191 8.0 9.7 0.00 0.10 0.10 67 1010.4
20260505081056 14 255 0.0 0.0 0.00 0.10 0.10 68 1010.4
20260505080552 13 290 3.2 3.2 0.00 0.10 0.10 73 1010.2
20260505080049 12 28 3.2 4.8 0.00 0.10 0.10 78 1010.7
20260505075545 13 343 3.2 3.2 0.18 0.10 0.10 76 1010.7
20260505075042 14 331 3.2 4.8 0.18 0.10 0.10 71 1010.8
20260505074539 15 318 3.2 3.2 0.00 0.08 0.08 66 1010.7
20260505074036 14 268 4.8 4.8 0.00 0.08 0.08 66 1010.6
20260505073533 14 320 4.8 4.8 0.00 0.08 0.08 66 1010.4
20260505073032 14 302 3.2 3.2 0.00 0.08 0.08 66 1010.4
20260505072527 14 311 3.2 4.8 0.00 0.08 0.08 66 1010.6
20260505072024 14 60 3.2 4.8 0.00 0.08 0.08 67 1010.3
20260505071519 13 288 6.4 9.7 0.00 0.08 0.08 66 1010.0
20260505071018 13 241 4.8 8.0 0.00 0.08 0.08 67 1010.1
20260505070515 13 240 3.2 3.2 0.00 0.08 0.08 69 1010.0
20260505070010 13 300 1.6 1.6 0.00 0.08 0.08 69 1010.0
20260505065507 13 269 3.2 3.2 0.00 0.08 0.08 70 1010.2
20260505065003 13 183 1.6 4.8 0.00 0.08 0.08 72 1010.0
20260505064500 13 310 4.8 4.8 0.00 0.08 0.08 72 1010.1
20260505063959 13 223 4.8 4.8 0.00 0.08 0.08 74 1010.1
20260505063455 12 228 4.8 4.8 0.00 0.08 0.08 77 1010.0
20260505062951 11 281 3.2 3.2 0.00 0.08 0.08 87 1010.1
20260505062448 11 13 0.0 0.0 0.00 0.08 0.08 91 1010.3
20260505061945 11 13 0.0 0.0 0.00 0.08 0.08 91 1010.4
20260505061443 11 13 0.0 0.0 0.00 0.08 0.08 90 1010.4
20260505060940 11 13 0.0 1.6 0.00 0.08 0.08 89 1010.6
20260505060437 12 10 1.6 1.6 0.43 0.08 0.08 86 1010.6
20260505055934 13 13 0.0 1.6 0.43 0.08 0.08 79 1010.7
20260505055430 14 293 3.2 3.2 0.00 0.00 0.00 65 1010.6
20260505054927 14 207 1.6 3.2 0.00 0.00 0.00 65 1010.4
20260505054424 14 194 6.4 8.0 0.00 0.00 0.00 65 1010.4
20260505053922 14 197 9.7 11.3 0.00 0.00 0.00 66 1010.4
20260505053419 14 322 4.8 4.8 0.00 0.00 0.00 66 1010.7
20260505052916 14 243 11.3 12.9 0.00 0.00 0.00 66 1010.7
20260505052412 14 222 4.8 4.8 0.00 0.00 0.00 67 1010.7
20260505051910 13 213 6.4 11.3 0.00 0.00 0.00 68 1010.6
20260505051407 14 222 8.0 9.7 0.00 0.00 0.00 67 1010.7
20260505050905 14 226 4.8 4.8 0.00 0.00 0.00 66 1010.4
20260505050403 14 217 3.2 3.2 0.00 0.00 0.00 66 1010.8
20260505041330 14 219 4.8 4.8 0.00 0.00 0.00 67 1010.6
20260505040827 14 244 3.2 3.2 0.00 0.00 0.00 67 1010.4
20260505040325 14 227 8.0 9.7 0.00 0.00 0.00 67 1010.4
20260505035822 15 215 8.0 9.7 0.00 0.00 0.00 67 1010.4
20260505035317 15 230 9.7 12.9 0.00 0.00 0.00 66 1010.4
20260505034815 15 202 4.8 4.8 0.00 0.00 0.00 67 1010.7
20260505034311 14 210 4.8 4.8 0.00 0.00 0.00 67 1010.6
20260505033808 14 213 4.8 8.0 0.00 0.00 0.00 67 1010.4
20260505033305 14 215 8.0 9.7 0.00 0.00 0.00 67 1010.6
20260505032804 14 301 3.2 3.2 0.00 0.00 0.00 68 1010.6
20260505032259 14 223 6.4 8.0 0.00 0.00 0.00 68 1010.6
20260505031757 14 207 6.4 8.0 0.00 0.00 0.00 69 1010.8
20260505031253 14 215 6.4 8.0 0.00 0.00 0.00 68 1010.7
20260505030750 14 223 6.4 8.0 0.00 0.00 0.00 68 1010.7
20260505030246 13 239 3.2 3.2 0.00 0.00 0.00 69 1011.0
20260505025742 14 212 1.6 1.6 0.00 0.00 0.00 69 1011.0
20260505025240 13 223 1.6 3.2 0.00 0.00 0.00 69 1011.0
20260505024738 13 247 4.8 4.8 0.00 0.00 0.00 69 1010.8
20260505024235 14 238 4.8 4.8 0.00 0.00 0.00 68 1010.9
20260505023732 14 219 1.6 3.2 0.00 0.00 0.00 68 1010.8
20260505023230 14 221 3.2 4.8 0.00 0.00 0.00 68 1010.9
20260505022727 15 219 4.8 4.8 0.00 0.00 0.00 67 1010.7
20260505022224 15 228 4.8 4.8 0.00 0.00 0.00 67 1010.8
20260505021720 15 227 1.6 3.2 0.00 0.00 0.00 66 1010.8
20260505021218 15 278 1.6 1.6 0.00 0.00 0.00 67 1010.9
20260505020713 15 205 1.6 3.2 0.00 0.00 0.00 66 1011.0
20260505020208 15 274 6.4 9.7 0.00 0.00 0.00 65 1011.0
20260505015706 15 264 4.8 8.0 0.00 0.00 0.00 65 1011.0
20260505015203 15 217 4.8 8.0 0.00 0.00 0.00 64 1011.1
20260505014700 15 201 8.0 11.3 0.00 0.00 0.00 65 1011.0
20260505014157 15 303 1.6 1.6 0.00 0.00 0.00 65 1010.9
20260505013654 15 309 4.8 4.8 0.00 0.00 0.00 64 1010.8
20260505013151 15 231 1.6 3.2 0.00 0.00 0.00 64 1011.0
20260505012650 15 74 0.0 1.6 0.00 0.00 0.00 64 1010.6
20260505012146 15 219 6.4 8.0 0.00 0.00 0.00 63 1010.7
20260505011642 15 198 4.8 4.8 0.00 0.00 0.00 63 1010.6
20260505011139 15 238 4.8 4.8 0.00 0.00 0.00 63 1010.6
20260505010639 16 202 6.4 9.7 0.00 0.00 0.00 63 1010.4
20260505010137 16 197 8.0 16.1 0.00 0.00 0.00 63 1010.7
20260505005633 16 341 6.4 8.0 0.00 0.00 0.00 62 1010.2
20260505005130 16 239 1.6 3.2 0.00 0.00 0.00 63 1010.2
20260505004627 15 214 4.8 8.0 0.00 0.00 0.00 63 1010.3
20260505004124 16 214 1.6 3.2 0.00 0.00 0.00 62 1010.3
20260505003621 15 307 4.8 4.8 0.00 0.00 0.00 63 1010.0
20260505003118 16 212 1.6 3.2 0.00 0.00 0.00 63 1010.3
20260505002614 16 236 4.8 4.8 0.00 0.00 0.00 63 1010.1
20260505002113 16 229 4.8 4.8 0.00 0.00 0.00 62 1010.2
20260505001609 16 209 3.2 3.2 0.00 0.00 0.00 62 1010.2
20260505001107 16 288 1.6 3.2 0.00 0.00 0.00 62 1010.4
20260505000604 16 346 1.6 1.6 0.00 0.00 0.00 61 1010.3
20260504235558 16 256 1.6 3.2 0.00 0.00 0.00 61 1010.2
20260504235055 16 222 1.6 1.6 0.00 0.00 0.00 60 1010.3
20260504234551 16 335 0.0 1.6 0.00 0.00 0.00 60 1010.1
20260504234049 16 245 4.8 4.8 0.00 0.00 0.00 59 1010.0
20260504233544 16 201 9.7 12.9 0.00 0.00 0.00 59 1009.9
20260504233041 17 271 3.2 3.2 0.00 0.00 0.00 59 1009.8
20260504232538 17 200 4.8 4.8 0.00 0.00 0.00 58 1009.9
20260504232036 17 303 3.2 3.2 0.00 0.00 0.00 58 1010.0
20260504231532 17 310 0.0 1.6 0.00 0.00 0.00 59 1010.1
20260504231028 17 344 3.2 3.2 0.00 0.00 0.00 58 1010.2
20260504230525 17 138 3.2 3.2 0.00 0.00 0.00 58 1010.1
20260504230024 17 322 6.4 8.0 0.00 0.00 0.00 58 1010.3
20260504225520 17 221 6.4 9.7 0.00 0.00 0.00 57 1010.3
20260504225017 17 37 3.2 3.2 0.00 0.00 0.00 56 1010.3
20260504224514 17 299 4.8 4.8 0.00 0.00 0.00 55 1010.2
20260504224011 17 327 6.4 8.0 0.00 0.00 0.00 55 1010.0
20260504223508 17 68 3.2 3.2 0.00 0.00 0.00 55 1010.0
20260504223004 17 245 9.7 12.9 0.00 0.00 0.00 55 1009.8
20260504222501 17 289 6.4 9.7 0.00 0.00 0.00 55 1010.0
20260504221958 17 229 4.8 9.7 0.00 0.00 0.00 55 1010.3
20260504221455 18 258 8.0 11.3 0.00 0.00 0.00 54 1009.8
20260504220952 18 236 8.0 12.9 0.00 0.00 0.00 54 1009.7
20260504220448 18 235 8.0 11.3 0.00 0.00 0.00 53 1009.9
20260504215945 18 274 8.0 9.7 0.00 0.00 0.00 52 1010.0
20260504215442 18 232 4.8 4.8 0.00 0.00 0.00 51 1010.1
20260504214939 18 216 16.1 29.0 0.00 0.00 0.00 52 1010.0
20260504214435 18 276 1.6 3.2 0.00 0.00 0.00 53 1009.9
20260504213932 18 281 4.8 8.0 0.00 0.00 0.00 52 1010.1
20260504213428 19 268 8.0 12.9 0.00 0.00 0.00 51 1009.9
20260504212926 19 346 4.8 8.0 0.00 0.00 0.00 51 1010.1
20260504212421 18 259 3.2 3.2 0.00 0.00 0.00 54 1009.8
20260504211919 18 243 11.3 14.5 0.00 0.00 0.00 53 1009.9
20260504211415 18 256 16.1 24.1 0.00 0.00 0.00 52 1009.9
20260504210913 20 256 9.7 14.5 0.00 0.00 0.00 50 1009.8
20260504210409 18 233 4.8 8.0 0.00 0.00 0.00 51 1009.9
20260504205907 20 281 6.4 8.0 0.00 0.00 0.00 49 1009.8
20260504205404 19 286 9.7 11.3 0.00 0.00 0.00 48 1010.0
20260504204902 20 229 4.8 4.8 0.00 0.00 0.00 51 1009.7
20260504204400 20 252 4.8 8.0 0.00 0.00 0.00 50 1009.8
20260504203900 20 23 3.2 3.2 0.00 0.00 0.00 51 1009.8
20260504203356 20 263 11.3 12.9 0.00 0.00 0.00 48 1009.8
20260504202852 18 282 8.0 11.3 0.00 0.00 0.00 50 1009.8
20260504202349 18 232 22.5 33.8 0.00 0.00 0.00 51 1009.8
20260504201845 19 200 3.2 3.2 0.00 0.00 0.00 51 1009.9
20260504201343 20 190 14.5 17.7 0.00 0.00 0.00 50 1009.9
20260504200840 19 217 17.7 22.5 0.00 0.00 0.00 51 1009.8
20260504200337 18 263 11.3 16.1 0.00 0.00 0.00 51 1009.6
20260504195833 18 227 11.3 14.5 0.00 0.00 0.00 51 1009.8
20260504195329 18 239 11.3 12.9 0.00 0.00 0.00 53 1009.9
20260504194826 20 225 9.7 14.5 0.00 0.00 0.00 51 1010.0
20260504194322 19 274 4.8 9.7 0.00 0.00 0.00 53 1010.0
20260504193818 19 240 9.7 11.3 0.00 0.00 0.00 52 1010.2
20260504193316 19 324 4.8 8.0 0.00 0.00 0.00 52 1010.0
20260504192814 18 195 6.4 9.7 0.00 0.00 0.00 53 1010.2
20260504192312 18 232 9.7 14.5 0.00 0.00 0.00 54 1010.4
20260504191810 19 61 0.0 1.6 0.00 0.00 0.00 56 1010.1
20260504191308 18 243 14.5 16.1 0.00 0.00 0.00 53 1010.4
20260504190803 18 264 9.7 11.3 0.00 0.00 0.00 53 1010.3
20260504190259 17 92 4.8 8.0 0.00 0.00 0.00 57 1010.3
20260504185755 17 258 9.7 14.5 0.00 0.00 0.00 55 1010.4
20260504185253 19 207 6.4 9.7 0.00 0.00 0.00 53 1010.6
20260504184749 18 225 4.8 8.0 0.00 0.00 0.00 54 1010.4
20260504184244 18 216 12.9 17.7 0.00 0.00 0.00 54 1010.9
20260504183740 19 246 4.8 8.0 0.00 0.00 0.00 54 1010.4
20260504183237 18 276 9.7 11.3 0.00 0.00 0.00 52 1010.3
20260504182736 18 211 6.4 9.7 0.00 0.00 0.00 54 1010.6
20260504182233 17 246 16.1 20.9 0.00 0.00 0.00 53 1010.7
20260504181730 18 221 19.3 27.4 0.00 0.00 0.00 53 1010.9
20260504181227 18 255 9.7 12.9 0.00 0.00 0.00 54 1010.9
20260504180726 17 215 17.7 22.5 0.00 0.00 0.00 54 1010.9
20260504180225 17 213 8.0 9.7 0.00 0.00 0.00 54 1011.0
20260504175722 17 180 11.3 14.5 0.00 0.00 0.00 54 1010.9
20260504175218 17 226 9.7 12.9 0.00 0.00 0.00 55 1011.3
20260504174717 16 201 16.1 17.7 0.00 0.00 0.00 56 1011.3
20260504174214 16 247 19.3 22.5 0.00 0.00 0.00 55 1011.2
20260504173710 17 223 12.9 20.9 0.00 0.00 0.00 55 1011.2
20260504173208 17 238 8.0 11.3 0.00 0.00 0.00 53 1011.1
20260504172704 17 195 17.7 24.1 0.00 0.00 0.00 54 1011.1
20260504172200 17 280 12.9 14.5 0.00 0.00 0.00 53 1011.1
20260504171657 17 227 16.1 22.5 0.00 0.00 0.00 53 1011.4
20260504171154 17 289 6.4 8.0 0.00 0.00 0.00 53 1011.4
20260504170650 16 226 8.0 14.5 0.00 0.00 0.00 53 1011.3
20260504170148 16 215 9.7 11.3 0.00 0.00 0.00 53 1011.2
20260504151028 15 289 12.9 14.5 0.00 0.00 0.00 50 1012.7
20260504150525 16 302 8.0 9.7 0.00 0.00 0.00 48 1012.5
20260504140951 15 234 6.4 9.7 0.00 0.00 0.00 51 1012.4
20260504140447 15 325 6.4 9.7 0.00 0.00 0.00 51 1012.4
20260504130412 11 240 14.5 17.7 0.00 0.00 0.00 58 1012.8
20260504110259 7 229 6.4 9.7 0.00 0.00 0.00 70 1013.2